Location: Potenza
(40.6330°N, 15.8000°E)
Time: 09:52:21
(UTC+02:00)

ISS - Visible Passes

Search period start: 08 May 2021 00:00
Search period end: 18 May 2021 00:00
Orbit: 418 x 421 km, 51.6° (Epoch: 08 May)

Date Brightness Start Highest point End Pass type
(mag) Time Alt. Az. Time Alt. Az. Time Alt. Az.
08 May -1.1 02:49:24 16° NNW 02:49:39 16° NNW 02:51:52 10° NNE visible
08 May -0.8 04:25:46 10° NNW 04:27:32 13° N 04:29:18 10° NE visible
09 May -0.7 02:03:26 16° NNE 02:03:26 16° NNE 02:04:35 10° NNE visible
09 May -0.7 03:38:13 10° NNW 03:39:50 13° N 03:41:27 10° NNE visible
09 May -1.2 05:14:51 10° NNW 05:17:36 22° NNE 05:20:20 10° ENE visible
10 May -0.7 02:50:28 10° NNW 02:52:07 13° N 02:53:47 10° NNE visible
10 May -0.8 04:27:34 10° NNW 04:29:58 18° NNE 04:32:22 10° ENE visible
11 May -0.7 02:04:21 14° N 02:04:25 14° N 02:06:18 10° NNE visible
11 May -0.7 03:40:15 10° NNW 03:42:19 15° NNE 03:44:22 10° NE visible
12 May -0.4 01:18:17 13° NNE 01:18:17 13° NNE 01:18:57 10° NNE visible
12 May -0.6 02:52:51 10° NNW 02:54:38 13° N 02:56:23 10° NE visible
12 May -1.7 04:29:12 10° NW 04:32:15 30° NNE 04:35:17 10° E visible
13 May -0.5 02:05:19 10° NNW 02:06:55 13° N 02:08:31 10° NNE visible
13 May -1.2 03:41:55 10° NNW 03:44:40 22° NNE 03:47:25 10° ENE visible
14 May -0.4 01:18:38 13° NNW 01:19:12 13° N 01:20:51 10° NNE visible
14 May -0.8 02:54:38 10° NNW 02:57:03 18° NNE 02:59:27 10° ENE visible
14 May -3.5 04:30:56 10° NW 04:34:19 74° NE 04:37:41 10° ESE visible
14 May -2.9 21:14:15 10° SSW 21:17:11 28° SE 21:20:08 10° ENE visible
14 May -2.1 22:50:48 10° W 22:53:56 35° NNW 22:55:40 21° NNE visible
15 May -0.5 00:29:38 10° NW 00:31:30 14° N 00:33:22 10° NNE visible
15 May -0.6 02:07:19 10° NNW 02:09:23 15° NNE 02:11:26 10° NE visible
15 May -2.6 03:43:35 10° NW 03:46:51 45° NNE 03:50:06 10° ESE visible
15 May -3.0 22:03:07 10° WSW 22:06:25 54° NNW 22:09:45 10° NE visible
15 May -0.7 23:41:37 10° NW 23:43:49 16° NNW 23:46:00 10° NNE visible
16 May -0.4 01:19:56 10° NNW 01:21:41 13° N 01:23:27 10° NE visible
16 May -1.8 02:56:16 10° NW 02:59:19 30° NNE 03:02:22 10° E visible
16 May -3.2 04:33:01 10° WNW 04:36:09 36° SW 04:39:16 10° SSE visible
16 May -3.8 21:15:37 10° SW 21:18:58 89° SSE 21:22:21 10° NE visible
16 May -0.9 22:53:37 10° WNW 22:56:09 19° NNW 22:58:42 10° NNE visible
17 May -0.4 00:32:22 10° NNW 00:33:58 13° N 00:35:34 10° NNE visible
17 May -1.3 02:08:59 10° NNW 02:11:44 23° NNE 02:14:29 10° ENE visible
17 May -3.9 03:45:26 10° WNW 03:48:47 64° SW 03:52:07 10° SE visible
17 May -1.4 22:05:41 10° W 22:08:32 25° NNW 22:11:24 10° NE visible
17 May -0.4 23:44:37 10° NNW 23:46:15 13° N 23:47:53 10° NNE visible
